Location: Zagreb
(45.8000°N, 16.0000°E)
Time: 00:58:07
(UTC+01:00)

Tiros 1 - Visible Passes

Search period start: 26 January 2020 00:00
Search period end: 05 February 2020 00:00
Orbit: 630 x 664 km, 48.4° (Epoch: 25 January)

Date Brightness Start Highest point End Pass type
(mag) Time Alt. Az. Time Alt. Az. Time Alt. Az.
26 Jan 7.9 17:32:38 10° WNW 17:37:17 55° SSW 17:41:58 10° SE visible
26 Jan 9.9 19:16:13 10° WSW 19:18:46 14° SW 19:21:18 10° SSW visible
27 Jan 9.1 17:58:57 10° W 18:03:07 30° SW 18:07:18 10° SSE visible
28 Jan 10.0 18:25:58 10° W 18:28:45 15° SW 18:31:33 10° S visible
30 Jan 10.1 17:35:45 10° W 17:38:45 17° SW 17:41:46 10° S visible
